Location: Poughquag
(41.6090°N, 73.6820°W)
Time: 09:50:05
(UTC-04:00)

Oscar 11 - Visible Passes

Search period start: 02 April 2020 00:00
Search period end: 12 April 2020 00:00
Orbit: 612 x 626 km, 97.6° (Epoch: 01 April)

Date Brightness Start Highest point End Pass type
(mag) Time Alt. Az. Time Alt. Az. Time Alt. Az.
02 Apr 10.2 20:05:58 10° SW 20:08:36 16° W 20:11:15 10° NW visible
07 Apr 10.0 19:54:33 10° SW 19:57:44 20° W 20:00:56 10° NW visible
08 Apr 10.3 20:12:54 10° WSW 20:14:57 13° W 20:17:01 10° WNW visible
